N2NET Weather Reports


time (UTC)temp
C
wind
direction
speed
KPH
gust
KPH
rain 1hr
cm
rain 24hr
cm
rain mn
cm
humidity
%
barometer
mb
20260505014550 10 141 0.0 1.6 0.00 0.00 0.00 70 1009.0
20260505013049 11 0 0.0 0.0 0.00 0.00 0.00 68 1008.9
20260505011552 11 0 0.0 3.2 0.00 0.00 0.00 66 1008.7
20260505010053 11 331 1.6 4.8 0.00 0.00 0.00 65 1008.3
20260505004552 12 0 0.0 4.8 0.00 0.00 0.00 62 1008.0
20260505003048 13 328 1.6 4.8 0.00 0.00 0.00 57 1007.9
20260505001552 15 325 1.6 4.8 0.00 0.00 0.00 54 1007.7
20260505000106 17 341 0.0 4.8 0.00 0.00 0.00 47 1007.4
20260504234610 18 0 0.0 14.5 0.00 0.00 0.00 37 1007.0
20260504233051 19 139 1.6 6.4 0.00 0.00 0.00 36 1007.0
20260504231603 20 296 1.6 12.9 0.00 0.00 0.00 35 1006.8
20260504230052 20 239 6.4 17.7 0.00 0.00 0.00 35 1006.7
20260504224555 -17 0.0 0.0 0.00 0.00 0.00 1006.6
20260504223058 -17 0.0 0.0 0.00 0.00 0.00 1006.4
20260504221558 -17 0.0 0.0 0.00 0.00 0.00 1006.2
20260504220055 -17 0.0 0.0 0.00 0.00 0.00 1006.4
20260504214554 -17 0.0 0.0 0.00 0.00 0.00 1006.5
20260504213055 -17 0.0 0.0 0.00 0.00 0.00 1006.6
20260504211554 -17 0.0 0.0 0.00 0.00 0.00 1006.7
20260504210107 -17 0.0 0.0 0.00 0.00 0.00 1006.8
20260504204602 -17 0.0 0.0 0.00 0.00 0.00 1006.8
20260504203054 -17 0.0 0.0 0.00 0.00 0.00 1007.1
20260504201556 -17 0.0 0.0 0.00 0.00 0.00 1007.0
20260504200059 -17 0.0 0.0 0.00 0.00 0.00 1007.2
20260504194607 -17 0.0 0.0 0.00 0.03 0.00 1007.5
20260504193056 -17 0.0 0.0 0.00 0.03 0.00 1007.6
20260504191555 -17 0.0 0.0 0.00 0.03 0.00 1007.6
20260504190120 -17 0.0 0.0 0.00 0.03 0.00 1007.8
20260504184556 -17 0.0 0.0 0.00 0.03 0.00 1007.6
20260504183050 18 239 8.0 22.5 0.00 0.03 0.00 100 1007.7
20260504181600 19 314 6.4 22.5 0.00 0.03 0.00 36 1007.7
20260504180155 18 314 8.0 20.9 0.00 0.03 0.00 38 1007.9
20260504174557 19 297 4.8 27.4 0.00 0.03 0.00 35 1007.9
20260504173059 18 284 6.4 40.2 0.00 0.03 0.00 38 1008.1
20260504171557 17 287 8.0 25.7 0.00 0.03 0.00 38 1008.2
20260504120112 11 299 4.8 9.7 0.00 0.03 0.00 57 1010.6
20260504081555 0 0 0.0 3.2 0.00 0.03 0.00 100 1010.9
20260504050120 1 0 0.0 1.6 0.00 0.03 0.00 47 1011.1
20260504044551 2 0 0.0 0.0 0.00 0.03 0.00 52 1011.1
20260504043057 2 0 0.0 0.0 0.00 0.03 0.00 53 1010.9
20260504041549 2 0 0.0 0.0 0.00 0.03 0.00 60 1011.1
20260504040049 2 0 0.0 0.0 0.00 0.03 0.00 65 1011.0
20260504034552 2 0 0.0 0.0 0.00 0.03 0.03 67 1010.9
20260504033051 2 0 0.0 0.0 0.00 0.03 0.03 69 1011.0
20260504031610 2 0 0.0 1.6 0.00 0.03 0.03 74 1010.9
20260504030048 3 0 0.0 0.0 0.00 0.03 0.03 75 1010.7
20260504024549 3 0 0.0 1.6 0.00 0.03 0.03 75 1010.9
20260504023051 4 0 0.0 0.0 0.00 0.03 0.03 73 1010.8
20260504021552 5 337 1.6 3.2 0.00 0.03 0.03 70 1010.7
20260504020055 6 0 0.0 0.0 0.00 0.03 0.03 66 1010.7